Погода в Луганске

Украина / Луганская область     48°34′26″N   39°18′27″E
темп.,
°C
ветер,
м/с
пор.,
м/с
влажн.,
%
обл.,
%
осадки,
мм/ч
давл.,
гПа
погр.,
м
5 марта, пт
пт523:00+3юз8177589 0.0 1012658
02:00+3юз8178094 0.0 1012607
05:00+3зюз8148697 0.0 1011656
08:00+4зюз7128598 0.0 1011650
11:00+5зюз71182100 0.0 1012873
14:00+4зюз51096100 0.5 1013585
17:00+4з1396100 1.1 1013137
20:00+4ссз0198100 3.4 101437
6 марта, сб
сб623:00+4в0198100 2.3 101359
02:00+3всв1299100 7.0 101290
05:00+3ссв2399100 4.5 1010119
08:00+1с4598100 7.3 1010222
11:00+1с71095100 0.7 1012630
14:00+1ссз81083100 1.2 1014958
17:000сз81169100 0.3 10161113
20:00−2сз6126259 0.3 10201209
7 марта, вс
вс723:00−3сз711610 0.0 10211222
02:00−3сз69600 0.0 10231081
05:00−4зсз47650 0.0 1024869
08:00−2з57550 0.0 1024859
11:00+1зюз79480 0.0 10221493
14:00+2зюз811464 0.0 10201565
17:000зюз6135442 0.0 1018635
20:00−1зюз7155146 0.0 1017779
8 марта, пн
пн823:00−1зюз716549 0.0 1016683
02:00−1зюз715594 0.0 1014678
05:00−1юз7156520 0.0 1013673
08:00+1зюз9156346 0.0 10131380
11:00+4з101456100 0.0 10131505
14:00+4з81262100 0.0 10131467
17:00+1зсз4975100 0.0 1013439
20:00−1з238297 0.0 101554
9 марта, вт
вт923:00−1юз2381100 0.0 101556
02:00−1юз2587100 0.0 1014198
05:00−1юз1291100 0.0 101352
08:000зюз3685100 0.3 1013533
11:00+1з5893100 0.8 1013543
14:00+1ссз797497 1.5 10141063
17:00−1сз7107793 0.2 1015623
20:00−3ссз388058 0.2 1018484